This demonstration page uses our WeatherBlox Daily Observations layout. Learn more.

Left ArrowRight Arrow

41.86663, -103.66717

Hourly Observations for September 25, 2021

Temp ( °F °C ) Dew Point ( °F °C ) Humidity (%) Winds ( mph kmh ) Pressure ( in mb ) Visibility ( mi km ) Precip ( " mm )
12:53 am 00:53 Clear 49 9.4 38 3.3 66 66 ESE 8 13 30.09 1019 10 16 N/A
1:53 am 01:53 Clear 48 8.9 38 3.3 68 68 ESE 6 9 30.08 1019 10 16 N/A
2:53 am 02:53 Clear 47 8.3 37 2.8 69 69 ESE 7 11 30.07 1018 10 16 N/A
3:53 am 03:53 Clear 48 8.9 38 3.3 68 68 VRB 3 6 30.04 1017 10 16 N/A
4:53 am 04:53 Clear 46 7.8 38 3.3 73 73 E 7 11 30.03 1017 10 16 N/A
5:53 am 05:53 Clear 45 7.2 37 2.8 74 74 E 7 11 30.03 1017 10 16 N/A
6:53 am 06:53 Sunny 44 6.7 36 2.2 73 73 N N/A 30.06 1018 10 16 N/A
7:53 am 07:53 Sunny 48 8.9 39 3.9 71 71 NW 5 7 30.07 1018 10 16 N/A
8:53 am 08:53 Sunny 54 12.2 40 4.4 59 59 NW 7 11 30.06 1018 10 16 N/A
9:53 am 09:53 Sunny 61 16.1 40 4.4 46 46 WNW 7 11 30.04 1017 10 16 N/A
10:53 am 10:53 Sunny 68 20 41 5 38 38 VRB 3 6 30.02 1017 10 16 N/A
11:53 am 11:53 Sunny 76 24.4 41 5 29 29 VRB 3 6 29.97 1015 10 16 N/A
12:53 pm 12:53 Sunny 82 27.8 38 3.3 21 21 VRB 3 6 29.92 1013 10 16 N/A
1:53 pm 13:53 Sunny 86 30 36 2.2 17 17 VRB 3 6 29.88 1012 10 16 N/A
2:53 pm 14:53 Sunny 88 31.1 33 0.6 14 14 VRB 3 6 29.84 1010 10 16 N/A
3:53 pm 15:53 Sunny 88 31.1 30 -1.1 12 12 N N/A 29.81 1009 10 16 N/A
4:53 pm 16:53 Sunny 88 31.1 32 undefined 13 13 E 8 13 29.79 1009 10 16 N/A
5:53 pm 17:53 Sunny 85 29.4 36 2.2 17 17 E 7 11 29.79 1009 10 16 N/A
6:53 pm 18:53 Clear 71 21.7 39 3.9 31 31 E 7 11 29.82 1010 10 16 N/A
7:53 pm 19:53 Clear 65 18.3 38 3.3 37 37 ESE 9 15 29.82 1010 10 16 N/A
8:53 pm 20:53 Clear 63 17.2 39 3.9 41 41 ESE 9 15 29.82 1010 10 16 N/A
9:53 pm 21:53 Clear 61 16.1 37 2.8 41 41 ENE 5 7 29.81 1010 10 16 N/A
10:53 pm 22:53 Clear 57 13.9 37 2.8 47 47 ENE 6 9 29.80 1009 10 16 N/A
11:53 pm 23:53 Clear 54 12.2 38 3.3 55 55 N N/A 29.80 1009 10 16 N/A

Powered by AerisWeather